STARLINK-32192, 60316

Orbit data source: Space-Track

STARLINK-32192, 60316 is a payload satellite owned by SpaceX/Seattle (US) in LEO that was launched on Sun, 28 Jul 2024 UTC via an FALCON 9 launch vehicle from the Air Force Western Test Range (AFWTR). Payload-class satellites include a variety of spacecraft equipped with specific instruments for various scientific and technological missions. These include communications satellites like Starlink; space stations such as the ISS; scientific satellites like the Hubble; Earth observation satellites from companies like Planet Labs, Umbra, and HawkEye 360; GPS; miniature CubeSats for education and research; and military/defense satellites.

Loading next visibility...
Identifier
60316, 2024-133R
Orbit
LEO
Country
Flag of USUS
Related business
Manufacturer
SpaceX/Seattle
Mission
Operational Commercial Communications
Bus & Motor
STARLINK V2M, Unknown motor
Mass
730 kg wet, ~700 kg dry
Launch date (UTC)
2024-07-28 (2 years ago)
Launch vehicle
FALCON 9
Launch site
Air Force Western Test Range (AFWTR)
Object type
Payload
Rocket body
Debris
Shape & HBR
Box + 2 Pan, 17.7 m
Radar Cross Section
33.884 m², Large (>1 m²)

Expand to show TLE details & history
Last TLE update: 14 hours ago

TLE from 14 hours ago
0 STARLINK-32192
1 60316U 24133R   26171.28510109  .00002303  00000-0  89833-4 0  9995
2 60316  53.1595 180.1271 0001362  84.6546 275.4610 15.30205244107448
Epoch: 2026-06-20T06:50Z
TLE epoch observation values (Epoch: 2026-06-20T06:50:32.734Z)
Latitude
-0.00002°
Longitude
168.98877°
Altitude
476.01 km
Speed
7.629 km/s
True Right ascension
12h 00m 30s
True Declination
0° 00' 00"
Sunlit
Object was in daylight at epoch
Visualization orbit readout
Latitude
Unknown
Longitude
Unknown
Altitude
Unknown
Speed
Unknown
Apparent Right ascension
Unknown
Apparent Declination
Unknown
Sunlit
N/A
Visualization observer readout
Local Sidereal Time
07:18:00
Azimuth
Unknown
Elevation
Unknown
Doppler factor
Unknown
Orbital elements
Apogee altitude
476.389 km
Perigee altitude
474.522 km
Semi-major axis
6,853.593 km
Eccentricity
0.00014
Inclination
53.1595°
RAAN
180.1271°
Arg. of periapsis
84.6546°
True anomaly
275.44546°
Mean anomaly
275.461°
Eccentric anomaly
275.45323°
Mean motion
3.8253 °/min
Orbital period
94.11 mins
BSTAR
0.000089833
Loading maneuver chart data...
Computing Atmospheric mass density...
Loading historical data...
Loading historical data...
Loading historical data...
Loading historical data...
Loading historical data...
Loading historical data...
Loading historical data...

Documentation

Showing up to 5 results
|